Location: Burera
(21.3780°N, 81.9534°E)
Time: 12:20:25
(UTC+00:00)

Cosmos 2228 Rocket - Pass Details

Date: 13 August 2020
Orbit: 617 x 653 km, 82.5° (Epoch: 22 September)

Event Time Altitude Azimuth Distance (km) Brightness Sun altitude
Rises 14:39:08 0° 346° (NNW) 2,888 7.1 -21.6°
Reaches altitude 10° 14:41:25 10° 340° (NNW) 1,979 6.3 -22.0°
Maximum altitude 14:45:35 44° 268° (W) 851 4.1 -22.9°
Enters shadow 14:48:37 17° 202° (SSW) 1,554 5.0 -23.5°
